When you browse on this site, cookies collect data to enhance your experience and personalize the content and advertising you see.
Visit our Privacy Policy to learn more. By continuing to use the site, you agree to this use of cookies and data.
  • In France
  • List of Countries
  • For 7 days
  • Water Temperature
  • Satellite Maps
  • Weather Map
  • Weather Widgets
  • user-avatar
    Login

    Hourly Weather Bihać

    Today, 22 March, Friday

    Time Temperature Precipitation Wind Pressure Humidity
    00:00 +2°C° 0 mm 3 mps 719 mmHg 81%
    01:00 +1°C° 0 mm 3 mps 719 mmHg 82%
    02:00 +1°C° 0 mm 3 mps 718 mmHg 83%
    03:00 +1°C° 0 mm 3 mps 718 mmHg 83%
    04:00 0°C° 0 mm 3 mps 718 mmHg 84%
    05:00 +1°C° 0 mm 3 mps 718 mmHg 82%
    06:00 +1°C° 0 mm 3 mps 718 mmHg 81%
    07:00 +1°C° 0 mm 3 mps 719 mmHg 80%
    08:00 +3°C° 0 mm 3 mps 719 mmHg 73%
    09:00 +7°C° 0 mm 3 mps 719 mmHg 67%
    10:00 +9°C° 0 mm 3 mps 720 mmHg 60%
    11:00 +10°C° 0 mm 3 mps 719 mmHg 56%
    12:00 +11°C° 0 mm 3 mps 719 mmHg 53%
    13:00 +12°C° 0 mm 3 mps 719 mmHg 49%
    14:00 +12°C° 0 mm 3 mps 719 mmHg 50%
    15:00 +12°C° 0 mm 3 mps 718 mmHg 51%
    16:00 +12°C° 0 mm 3 mps 718 mmHg 51%
    17:00 +10°C° 0 mm 3 mps 718 mmHg 58%
    18:00 +8°C° 0 mm 3 mps 717 mmHg 64%
    19:00 +5°C° 0 mm 3 mps 717 mmHg 71%
    20:00 +5°C° 0 mm 3 mps 717 mmHg 72%
    21:00 +5°C° 0 mm 3 mps 717 mmHg 72%
    22:00 +4°C° 0 mm 3 mps 717 mmHg 73%
    23:00 +4°C° 0 mm 3 mps 717 mmHg 74%

    Tomorrow, 23 March, Saturday

    Time Temperature Precipitation Wind Pressure Humidity
    00:00 +4°C° 0 mm 3 mps 716 mmHg 75%
    01:00 +3°C° 0 mm 3 mps 716 mmHg 76%
    02:00 +3°C° 0 mm 3 mps 716 mmHg 76%
    03:00 +3°C° 0 mm 3 mps 716 mmHg 77%
    04:00 +2°C° 0 mm 3 mps 715 mmHg 77%
    05:00 +3°C° 0 mm 3 mps 715 mmHg 77%
    06:00 +3°C° 0 mm 3 mps 716 mmHg 76%
    07:00 +3°C° 0 mm 3 mps 716 mmHg 75%
    08:00 +5°C° 0 mm 3 mps 716 mmHg 69%
    09:00 +9°C° 0 mm 3 mps 716 mmHg 62%
    10:00 +11°C° 0 mm 3 mps 716 mmHg 56%
    11:00 +12°C° 0 mm 3 mps 716 mmHg 53%
    12:00 +13°C° 0 mm 3 mps 716 mmHg 51%
    13:00 +16°C° 0 mm 3 mps 716 mmHg 49%
    14:00 +16°C° 0 mm 3 mps 716 mmHg 50%
    15:00 +16°C° 0 mm 3 mps 716 mmHg 51%
    16:00 +14°C° 0 mm 3 mps 716 mmHg 52%
    17:00 +14°C° 0 mm 2 mps 715 mmHg 60%
    18:00 +12°C° 0 mm 2 mps 715 mmHg 67%
    19:00 +9°C° 0 mm 2 mps 715 mmHg 75%
    20:00 +8°C° 0 mm 2 mps 715 mmHg 77%
    21:00 +8°C° 0 mm 2 mps 715 mmHg 79%
    22:00 +7°C° 0 mm 2 mps 715 mmHg 80%
    23:00 +7°C° 0 mm 2 mps 715 mmHg 82%

    Day after tomorrow, 24 March, Sunday

    Time Temperature Precipitation Wind Pressure Humidity
    00:00 +6°C° 0 mm 2 mps 715 mmHg 83%
    01:00 +6°C° 0 mm 2 mps 715 mmHg 85%
    02:00 +6°C° 0 mm 2 mps 715 mmHg 86%
    03:00 +6°C° 0 mm 2 mps 715 mmHg 87%
    04:00 +5°C° 0 mm 2 mps 714 mmHg 88%
    05:00 +6°C° 0 mm 2 mps 714 mmHg 87%
    06:00 +6°C° 0 mm 2 mps 714 mmHg 85%
    07:00 +6°C° 0 mm 2 mps 714 mmHg 84%
    08:00 +9°C° 0 mm 2 mps 715 mmHg 74%
    09:00 +12°C° 0 mm 2 mps 715 mmHg 65%
    10:00 +14°C° 0 mm 1 mps 716 mmHg 55%
    11:00 +16°C° 0 mm 1 mps 715 mmHg 51%
    12:00 +18°C° 0 mm 1 mps 715 mmHg 47%
    13:00 +19°C° 0 mm 1 mps 715 mmHg 43%
    14:00 +19°C° 0 mm 1 mps 715 mmHg 45%
    15:00 +19°C° 0 mm 1 mps 714 mmHg 47%
    16:00 +18°C° 0 mm 1 mps 714 mmHg 50%
    17:00 +15°C° 0 mm 1 mps 713 mmHg 57%
    18:00 +13°C° 0 mm 1 mps 713 mmHg 65%
    19:00 +12°C° 0 mm 1 mps 713 mmHg 73%
    20:00 +11°C° 0 mm 1 mps 713 mmHg 74%
    21:00 +11°C° 0 mm 1 mps 713 mmHg 76%
    22:00 +10°C° 0 mm 1 mps 713 mmHg 77%
    23:00 +10°C° 0 mm 1 mps 713 mmHg 78%

    25 March, Monday

    Time Temperature Precipitation Wind Pressure Humidity
    00:00 +10°C° 0 mm 1 mps 713 mmHg 78%
    01:00 +9°C° 0 mm 1 mps 713 mmHg 79%
    02:00 +9°C° 0 mm 1 mps 712 mmHg 80%
    03:00 +7°C° 0 mm 2 mps 712 mmHg 80%
    04:00 +7°C° 0 mm 2 mps 712 mmHg 81%
    05:00 +7°C° 0 mm 2 mps 712 mmHg 81%
    06:00 +7°C° 0 mm 2 mps 712 mmHg 81%
    07:00 +8°C° 0 mm 2 mps 712 mmHg 82%
    08:00 +9°C° 0 mm 2 mps 712 mmHg 76%
    09:00 +12°C° 0 mm 2 mps 712 mmHg 70%
    10:00 +14°C° 0 mm 2 mps 713 mmHg 64%
    11:00 +15°C° 0 mm 2 mps 712 mmHg 62%
    12:00 +16°C° 0 mm 2 mps 712 mmHg 61%
    13:00 +16°C° 0 mm 1 mps 712 mmHg 59%
    14:00 +15°C° 0 mm 2 mps 711 mmHg 63%
    15:00 +15°C° 0 mm 2 mps 711 mmHg 67%
    16:00 +14°C° 0 mm 2 mps 710 mmHg 71%
    17:00 +13°C° 0 mm 2 mps 710 mmHg 76%
    18:00 +12°C° 0 mm 2 mps 710 mmHg 82%
    19:00 +9°C° 0 mm 2 mps 710 mmHg 88%
    20:00 +9°C° 0.2 mm 2 mps 710 mmHg 88%
    21:00 +8°C° 0.2 mm 3 mps 710 mmHg 89%
    22:00 +8°C° 0.2 mm 3 mps 710 mmHg 89%
    23:00 +6°C° 1.5 mm 5 mps 711 mmHg 86%

    26 March, Tuesday

    Time Temperature Precipitation Wind Pressure Humidity
    00:00 +4°C° 1.5 mm 7 mps 711 mmHg 83%
    01:00 +2°C° 1.5 mm 9 mps 712 mmHg 80%
    02:00 +1°C° 0.4 mm 9 mps 712 mmHg 76%
    03:00 0°C° 0.4 mm 10 mps 712 mmHg 72%
    04:00 0°C° 0.4 mm 10 mps 713 mmHg 68%
    05:00 -2°C° 0 mm 10 mps 713 mmHg 69%
    06:00 -2°C° 0 mm 10 mps 714 mmHg 70%
    07:00 -2°C° 0 mm 10 mps 715 mmHg 71%
    08:00 -2°C° 0 mm 10 mps 715 mmHg 69%
    09:00 0°C° 0 mm 10 mps 715 mmHg 68%
    10:00 -1°C° 0 mm 11 mps 716 mmHg 66%
    11:00 +1°C° 0 mm 10 mps 716 mmHg 63%
    12:00 +1°C° 0 mm 10 mps 715 mmHg 59%
    13:00 +2°C° 0 mm 10 mps 715 mmHg 56%
    14:00 +2°C° 0 mm 10 mps 715 mmHg 55%
    15:00 +2°C° 0 mm 10 mps 715 mmHg 53%
    16:00 +2°C° 0 mm 10 mps 715 mmHg 52%
    17:00 +1°C° 0 mm 10 mps 716 mmHg 57%
    18:00 0°C° 0 mm 9 mps 716 mmHg 61%
    19:00 -1°C° 0 mm 9 mps 716 mmHg 66%
    20:00 -1°C° 0 mm 9 mps 717 mmHg 67%
    21:00 -1°C° 0 mm 9 mps 717 mmHg 68%
    22:00 -3°C° 0 mm 9 mps 718 mmHg 69%
    23:00 -2°C° 0 mm 8 mps 718 mmHg 70%

    27 March, Wednesday

    Time Temperature Precipitation Wind Pressure Humidity
    00:00 -2°C° 0 mm 7 mps 718 mmHg 71%
    01:00 -3°C° 0 mm 7 mps 718 mmHg 71%
    02:00 -3°C° 0 mm 6 mps 718 mmHg 72%
    03:00 -3°C° 0 mm 6 mps 718 mmHg 73%
    04:00 -2°C° 0 mm 5 mps 718 mmHg 73%
    05:00 -2°C° 0 mm 5 mps 718 mmHg 73%
    06:00 -2°C° 0 mm 5 mps 718 mmHg 73%
    07:00 -2°C° 0 mm 5 mps 719 mmHg 72%
    08:00 0°C° 0 mm 5 mps 719 mmHg 66%
    09:00 +1°C° 0 mm 5 mps 719 mmHg 59%
    10:00 +3°C° 0 mm 5 mps 720 mmHg 52%
    11:00 +5°C° 0 mm 5 mps 719 mmHg 49%
    12:00 +6°C° 0 mm 5 mps 719 mmHg 46%
    13:00 +7°C° 0 mm 5 mps 719 mmHg 44%
    14:00 +7°C° 0 mm 5 mps 719 mmHg 44%
    15:00 +7°C° 0 mm 4 mps 719 mmHg 44%
    16:00 +7°C° 0 mm 4 mps 718 mmHg 44%
    17:00 +5°C° 0 mm 4 mps 718 mmHg 51%
    18:00 +4°C° 0 mm 3 mps 718 mmHg 58%
    19:00 +2°C° 0 mm 3 mps 718 mmHg 64%
    20:00 +3°C° 0 mm 2 mps 719 mmHg 66%
    21:00 +2°C° 0 mm 2 mps 719 mmHg 67%
    22:00 +2°C° 0 mm 2 mps 719 mmHg 69%
    23:00 +2°C° 0 mm 2 mps 719 mmHg 67%
    Show more